Regional Weather Roundup
Issued by NWS

Home | Current Version | Previous Version | Text Only | Print | Product List | Glossary On
Versions: 1 2 3 4 5 6 7 8 9 10 11 12 13 14 15 16 17 18 19 20 21 22 23 24 25 26 27 28 29 30 31 32 33 34 35 36 37 38 39 40 41 42 43 44 45 46 47 48 49 50
000
ASUS43 KTOP 302259
RWRKS

WEATHER ROUNDUP FOR KANSAS
NATIONAL WEATHER SERVICE GOODLAND KS
500 PM CST FRI JAN 30 2015

NOTE:  "FAIR" INDICATES FEW OR NO CLOUDS BELOW 12,000 FEET WITH NO
SIGNIFICANT WEATHER AND/OR OBSTRUCTIONS TO VISIBILITY.

KSZ001>006-013>018-027>032-041>047-310000-
NORTHWEST KANSAS

CITY           SKY/WX    TMP DP  RH WIND       PRES   REMARKS
GOODLAND       CLOUDY    41  32  70 S21G26    30.16S
HAYS           CLOUDY    43  25  49 S13       30.31S
HILL CITY      CLOUDY    44  27  51 S12G21    30.27F
RUSSELL        CLOUDY    42  28  57 S12       30.31F
$$

KSZ061>065-074>080-084>089-310000-
SOUTHWEST KANSAS

CITY           SKY/WX    TMP DP  RH WIND       PRES   REMARKS
DODGE CITY     CLOUDY    42  24  49 S12       30.29F
ELKHART          N/A     33  28  81 S12         N/A  WCI  24
GARDEN CITY    CLOUDY    41  30  65 S17       30.25S
LIBERAL        CLOUDY    39  27  60 S15       30.30S WCI  31
$$

KSZ066>073-081>083-090>101-310000-
SOUTHEAST KANSAS

CITY           SKY/WX    TMP DP  RH WIND       PRES   REMARKS
CHANUTE        CLOUDY    42  23  46 SE5       30.42F
COFFEYVILLE    CLOUDY    44  25  47 NE5       30.43S
HUTCHINSON     CLOUDY    42  26  53 S12       30.37F
MEDICINE LODGE   N/A     42  27  55 S10       30.35F
NEWTON         CLOUDY    41  23  48 S7        30.39F
PARSONS        CLOUDY    43  23  45 CALM      30.44S
WICHITA INTL   CLOUDY    42  25  50 S7        30.39F
WICHITA JABRA  CLOUDY    42  25  50 S8        30.39F
WINFIELD       CLOUDY    44  23  43 CALM      30.41F
$$

KSZ007>012-019>026-033>040-048>060-102>105-310000-
NORTHEAST KANSAS

CITY           SKY/WX    TMP DP  RH WIND       PRES   REMARKS
CONCORDIA      CLOUDY    42  27  55 S13       30.33F
EMPORIA        CLOUDY    40  23  50 S7        30.39F
LAWRENCE       CLOUDY    39  22  50 S7        30.42F
MANHATTAN      CLOUDY    42  25  50 S7        30.37F
OLATHE IND     CLOUDY    37  23  56 S6        30.42F
OLATHE EXE     CLOUDY    38  21  50 S6        30.41F
SALINA         CLOUDY    43  26  51 S9        30.38F
TOPEKA BILLARD CLOUDY    41  21  44 S7        30.41F
TOPEKA FORBES  CLOUDY    41  22  46 S6        30.39F
$$


USA.gov is the U.S. government's official web portal to all federal, state and local government web resources and services.